Time,TemperatureF,DewpointF,PressureIn,WindDirection,WindDirectionDegrees,WindSpeedMPH,WindSpeedGustMPH,Humidity,HourlyPrecipIn,Conditions,Clouds,dailyrainin,SolarRadiationWatts/m^2,SoftwareType,DateUTC
2013-10-02 00:04:00,59.0,58.0,-100.00,ESE,118,0.0,2.0,98,0.00,,,0.00,0.000000,,2013-10-02 04:04:00,
2013-10-02 00:44:00,59.0,58.0,-100.00,ESE,118,0.0,2.0,98,0.00,,,0.00,0.000000,,2013-10-02 04:44:00,
2013-10-02 00:54:00,59.0,58.0,-100.00,ESE,118,0.0,2.0,98,0.00,,,0.00,0.000000,,2013-10-02 04:54:00,
2013-10-02 01:23:00,59.0,58.0,-100.00,North,357,1.0,3.0,98,0.00,,,0.00,0.000000,,2013-10-02 05:23:00,
2013-10-02 01:33:00,59.0,58.0,-100.00,North,357,1.0,3.0,98,0.00,,,0.00,0.000000,,2013-10-02 05:33:00,
2013-10-02 01:43:00,59.0,58.0,-100.00,North,357,1.0,3.0,98,0.00,,,0.00,0.000000,,2013-10-02 05:43:00,
2013-10-02 01:53:00,59.0,58.0,-100.00,North,357,1.0,3.0,98,0.00,,,0.00,0.000000,,2013-10-02 05:53:00,
2013-10-02 02:03:00,59.0,58.0,-100.00,North,357,1.0,3.0,98,0.00,,,0.00,0.000000,,2013-10-02 06:03:00,
2013-10-02 02:22:00,57.0,56.0,-100.00,North,11,0.0,0.0,97,0.00,,,0.00,0.000000,,2013-10-02 06:22:00,
2013-10-02 02:32:00,57.0,56.0,-100.00,North,11,0.0,0.0,97,0.00,,,0.00,0.000000,,2013-10-02 06:32:00,
2013-10-02 02:42:00,57.0,56.0,-100.00,North,11,0.0,0.0,97,0.00,,,0.00,0.000000,,2013-10-02 06:42:00,
2013-10-02 02:52:00,57.0,56.0,-100.00,North,11,0.0,0.0,97,0.00,,,0.00,0.000000,,2013-10-02 06:52:00,
2013-10-02 03:02:00,57.0,56.0,-100.00,North,11,0.0,0.0,97,0.00,,,0.00,0.000000,,2013-10-02 07:02:00,
2013-10-02 03:22:00,56.0,55.0,-100.00,SW,229,2.0,2.0,98,0.00,,,0.00,0.000000,,2013-10-02 07:22:00,
2013-10-02 03:32:00,56.0,55.0,-100.00,SW,229,2.0,2.0,98,0.00,,,0.00,0.000000,,2013-10-02 07:32:00,
2013-10-02 03:42:00,56.0,55.0,-100.00,SW,229,2.0,2.0,98,0.00,,,0.00,0.000000,,2013-10-02 07:42:00,
2013-10-02 03:52:00,56.0,55.0,-100.00,SW,229,2.0,2.0,98,0.00,,,0.00,0.000000,,2013-10-02 07:52:00,
2013-10-02 04:03:00,56.0,55.0,-100.00,SW,229,2.0,2.0,98,0.00,,,0.00,0.000000,,2013-10-02 08:03:00,
2013-10-02 04:22:00,55.0,54.0,-100.00,SW,218,0.0,2.0,98,0.00,,,0.00,0.000000,,2013-10-02 08:22:00,
2013-10-02 04:32:00,55.0,54.0,-100.00,SW,218,0.0,2.0,98,0.00,,,0.00,0.000000,,2013-10-02 08:32:00,
2013-10-02 04:42:00,55.0,54.0,-100.00,SW,218,0.0,2.0,98,0.00,,,0.00,0.000000,,2013-10-02 08:42:00,
2013-10-02 04:52:00,55.0,54.0,-100.00,SW,218,0.0,2.0,98,0.00,,,0.00,0.000000,,2013-10-02 08:52:00,
2013-10-02 05:02:00,55.0,54.0,-100.00,SW,218,0.0,2.0,98,0.00,,,0.00,0.000000,,2013-10-02 09:02:00,
2013-10-02 05:43:00,55.0,55.0,-100.00,SW,220,0.0,0.0,99,0.00,,,0.00,0.000000,,2013-10-02 09:43:00,
2013-10-02 05:54:00,55.0,55.0,-100.00,SW,220,0.0,0.0,99,0.00,,,0.00,0.000000,,2013-10-02 09:54:00,
2013-10-02 06:03:00,55.0,55.0,-100.00,SW,220,0.0,0.0,99,0.00,,,0.00,0.000000,,2013-10-02 10:03:00,
2013-10-02 06:42:00,55.0,55.0,-100.00,NE,37,0.0,1.0,99,0.00,,,0.00,0.000000,,2013-10-02 10:42:00,
2013-10-02 06:53:00,55.0,55.0,-100.00,NE,37,0.0,1.0,99,0.00,,,0.00,0.000000,,2013-10-02 10:53:00,
2013-10-02 07:03:00,55.0,55.0,-100.00,NE,37,0.0,1.0,99,0.00,,,0.00,0.000000,,2013-10-02 11:03:00,
2013-10-02 07:43:00,54.0,54.0,-100.00,SSE,165,0.0,1.0,99,0.00,,,-99.99,0.000000,,2013-10-02 11:43:00,
2013-10-02 07:52:00,54.0,54.0,-100.00,SSE,165,0.0,1.0,99,0.00,,,-99.99,0.000000,,2013-10-02 11:52:00,
2013-10-02 08:02:00,54.0,54.0,-100.00,SSE,165,0.0,1.0,99,0.00,,,-99.99,0.000000,,2013-10-02 12:02:00,
2013-10-02 08:22:00,55.0,55.0,-100.00,SSE,148,1.0,1.0,100,0.00,,,0.00,13.000000,,2013-10-02 12:22:00,
2013-10-02 08:32:00,55.0,55.0,-100.00,SSE,148,1.0,1.0,100,0.00,,,0.00,13.000000,,2013-10-02 12:32:00,
2013-10-02 08:42:00,55.0,55.0,-100.00,SSE,148,1.0,1.0,100,0.00,,,0.00,13.000000,,2013-10-02 12:42:00,
2013-10-02 08:52:00,55.0,55.0,-100.00,SSE,148,1.0,1.0,100,0.00,,,0.00,13.000000,,2013-10-02 12:52:00,
2013-10-02 09:02:00,55.0,55.0,-100.00,SSE,148,1.0,1.0,100,0.00,,,0.00,13.000000,,2013-10-02 13:02:00,
2013-10-02 09:42:00,60.0,60.0,-100.00,South,173,2.0,2.0,100,0.00,,,0.00,26.000000,,2013-10-02 13:42:00,
2013-10-02 09:52:00,60.0,60.0,-100.00,South,173,2.0,2.0,100,0.00,,,0.00,26.000000,,2013-10-02 13:52:00,
2013-10-02 10:02:00,60.0,60.0,-100.00,South,173,2.0,2.0,100,0.00,,,0.00,26.000000,,2013-10-02 14:02:00,
2013-10-02 10:42:00,69.0,62.0,-100.00,South,186,3.0,5.0,79,0.00,,,0.00,84.000000,,2013-10-02 14:42:00,
2013-10-02 10:52:00,69.0,62.0,-100.00,South,186,3.0,5.0,79,0.00,,,0.00,84.000000,,2013-10-02 14:52:00,
2013-10-02 11:02:00,69.0,62.0,-100.00,South,186,3.0,5.0,79,0.00,,,0.00,84.000000,,2013-10-02 15:02:00,
2013-10-02 11:43:00,76.0,61.0,-100.00,NE,39,2.0,5.0,60,0.00,,,0.00,589.000000,,2013-10-02 15:43:00,
2013-10-02 11:54:00,76.0,61.0,-100.00,NE,39,2.0,5.0,60,0.00,,,0.00,589.000000,,2013-10-02 15:54:00,
2013-10-02 12:03:00,76.0,61.0,-100.00,NE,39,2.0,5.0,60,0.00,,,0.00,589.000000,,2013-10-02 16:03:00,
2013-10-02 12:43:00,80.0,60.0,-100.00,NNE,14,3.0,7.0,51,0.00,,,0.00,737.000000,,2013-10-02 16:43:00,
2013-10-02 12:53:00,80.0,60.0,-100.00,NNE,14,3.0,7.0,51,0.00,,,0.00,737.000000,,2013-10-02 16:53:00,
2013-10-02 13:02:00,80.0,60.0,-100.00,NNE,14,3.0,7.0,51,0.00,,,0.00,737.000000,,2013-10-02 17:02:00,
2013-10-02 13:42:00,81.0,59.0,-100.00,NE,39,2.0,6.0,47,0.00,,,0.00,710.000000,,2013-10-02 17:42:00,
2013-10-02 13:52:00,81.0,59.0,-100.00,NE,39,2.0,6.0,47,0.00,,,0.00,710.000000,,2013-10-02 17:52:00,
2013-10-02 14:02:00,81.0,59.0,-100.00,NE,39,2.0,6.0,47,0.00,,,0.00,710.000000,,2013-10-02 18:02:00,
2013-10-02 14:22:00,82.0,58.0,-100.00,SE,128,4.0,6.0,44,0.00,,,0.00,659.000000,,2013-10-02 18:22:00,
2013-10-02 14:32:00,82.0,58.0,-100.00,SE,128,4.0,6.0,44,0.00,,,0.00,659.000000,,2013-10-02 18:32:00,
2013-10-02 14:42:00,82.0,58.0,-100.00,SE,128,4.0,6.0,44,0.00,,,0.00,659.000000,,2013-10-02 18:42:00,
2013-10-02 14:52:00,82.0,58.0,-100.00,SE,128,4.0,6.0,44,0.00,,,0.00,659.000000,,2013-10-02 18:52:00,
2013-10-02 15:02:00,82.0,58.0,-100.00,SE,128,4.0,6.0,44,0.00,,,0.00,659.000000,,2013-10-02 19:02:00,
2013-10-02 15:22:00,79.0,56.0,-100.00,ESE,108,1.0,6.0,46,0.00,,,0.00,483.000000,,2013-10-02 19:22:00,
2013-10-02 15:32:00,79.0,56.0,-100.00,ESE,108,1.0,6.0,46,0.00,,,0.00,483.000000,,2013-10-02 19:32:00,
2013-10-02 15:42:00,79.0,56.0,-100.00,ESE,108,1.0,6.0,46,0.00,,,0.00,483.000000,,2013-10-02 19:42:00,
2013-10-02 15:52:00,79.0,56.0,-100.00,ESE,108,1.0,6.0,46,0.00,,,0.00,483.000000,,2013-10-02 19:52:00,
2013-10-02 16:02:00,79.0,56.0,-100.00,ESE,108,1.0,6.0,46,0.00,,,0.00,483.000000,,2013-10-02 20:02:00,
2013-10-02 16:22:00,83.0,58.0,-100.00,SSE,164,4.0,8.0,42,0.00,,,0.00,626.000000,,2013-10-02 20:22:00,
2013-10-02 16:32:00,83.0,58.0,-100.00,SSE,164,4.0,8.0,42,0.00,,,0.00,626.000000,,2013-10-02 20:32:00,
2013-10-02 16:42:00,83.0,58.0,-100.00,SSE,164,4.0,8.0,42,0.00,,,0.00,626.000000,,2013-10-02 20:42:00,
2013-10-02 16:52:00,83.0,58.0,-100.00,SSE,164,4.0,8.0,42,0.00,,,0.00,626.000000,,2013-10-02 20:52:00,
2013-10-02 17:02:00,83.0,58.0,-100.00,SSE,164,4.0,8.0,42,0.00,,,0.00,626.000000,,2013-10-02 21:02:00,
2013-10-02 17:04:00,81.0,59.0,-100.00,South,180,4.0,7.0,48,0.00,,,0.00,463.000000,,2013-10-02 21:04:00,
2013-10-02 17:44:00,81.0,59.0,-100.00,South,180,4.0,7.0,48,0.00,,,0.00,463.000000,,2013-10-02 21:44:00,
2013-10-02 17:55:00,81.0,59.0,-100.00,South,180,4.0,7.0,48,0.00,,,0.00,463.000000,,2013-10-02 21:55:00,
2013-10-02 18:04:00,80.0,57.0,-100.00,SSW,197,3.0,6.0,46,0.00,,,0.00,298.000000,,2013-10-02 22:04:00,
2013-10-02 18:44:00,80.0,57.0,-100.00,SSW,197,3.0,6.0,46,0.00,,,0.00,298.000000,,2013-10-02 22:44:00,
2013-10-02 18:54:00,80.0,57.0,-100.00,SSW,197,3.0,6.0,46,0.00,,,0.00,298.000000,,2013-10-02 22:54:00,
2013-10-02 19:42:00,71.0,60.0,-100.00,NNW,341,0.0,4.0,69,0.00,,,0.00,45.000000,,2013-10-02 23:42:00,
2013-10-02 19:52:00,71.0,60.0,-100.00,NNW,341,0.0,4.0,69,0.00,,,0.00,45.000000,,2013-10-02 23:52:00,
2013-10-02 20:02:00,71.0,60.0,-100.00,NNW,341,0.0,4.0,69,0.00,,,0.00,45.000000,,2013-10-03 00:02:00,
2013-10-02 20:22:00,66.0,60.0,-100.00,NNW,337,0.0,0.0,81,0.00,,,0.00,0.000000,,2013-10-03 00:22:00,
2013-10-02 20:32:00,66.0,60.0,-100.00,NNW,337,0.0,0.0,81,0.00,,,0.00,0.000000,,2013-10-03 00:32:00,
2013-10-02 20:42:00,66.0,60.0,-100.00,NNW,337,0.0,0.0,81,0.00,,,0.00,0.000000,,2013-10-03 00:42:00,
2013-10-02 20:52:00,66.0,60.0,-100.00,NNW,337,0.0,0.0,81,0.00,,,0.00,0.000000,,2013-10-03 00:52:00,
2013-10-02 21:02:00,66.0,60.0,-100.00,NNW,337,0.0,0.0,81,0.00,,,0.00,0.000000,,2013-10-03 01:02:00,
2013-10-02 21:23:00,64.0,60.0,-100.00,North,352,0.0,2.0,86,0.00,,,0.00,0.000000,,2013-10-03 01:23:00,
2013-10-02 21:32:00,64.0,60.0,-100.00,North,352,0.0,2.0,86,0.00,,,0.00,0.000000,,2013-10-03 01:32:00,
2013-10-02 21:42:00,64.0,60.0,-100.00,North,352,0.0,2.0,86,0.00,,,0.00,0.000000,,2013-10-03 01:42:00,
2013-10-02 21:52:00,64.0,60.0,-100.00,North,352,0.0,2.0,86,0.00,,,0.00,0.000000,,2013-10-03 01:52:00,
2013-10-02 22:02:00,64.0,60.0,-100.00,North,352,0.0,2.0,86,0.00,,,0.00,0.000000,,2013-10-03 02:02:00,
2013-10-02 22:52:00,62.0,60.0,-100.00,NNW,339,0.0,0.0,92,0.00,,,0.00,0.000000,,2013-10-03 02:52:00,
2013-10-02 23:03:00,62.0,60.0,-100.00,NNW,339,0.0,0.0,92,0.00,,,0.00,0.000000,,2013-10-03 03:03:00,
2013-10-02 23:04:00,61.0,60.0,-100.00,ENE,71,0.0,0.0,96,0.00,,,0.00,0.000000,,2013-10-03 03:04:00,
2013-10-02 23:44:00,61.0,60.0,-100.00,ENE,71,0.0,0.0,96,0.00,,,0.00,0.000000,,2013-10-03 03:44:00,
2013-10-02 23:54:00,61.0,60.0,-100.00,ENE,71,0.0,0.0,96,0.00,,,0.00,0.000000,,2013-10-03 03:54:00,